Starlink 11734

operational
NORAD ID: 64329 Int'l Des: 2025-124 Owner: SPXS Country: US Constellation: starlink
LEOCIRCULAR

关于 Starlink 11734

正在加载描述...

实时位置

正在加载3D地球...

即将过境

高度历史

Altitude vs Time

uPlot chart will show altitude changes over time

两行轨道根数

1 64329U 25124N 25353.15649928 .00165514 00000-0 12676-2 0 9996
2 64329 42.9988 154.1897 0000831 309.7665 50.3130 15.70844752 30175
Epoch: Dec 19, 2025 • Age: 26 hours

当前状态

高度 368.4 km
速度 7.69 km/s
星下点 -43.09°S, 114.79°W
发射日期 Jun 10, 2025
运行时间 0.5 years
类型 internet

技术详情

分类 Payload
质量 960.00 kg
干质量 910.00 kg
总质量 960.00 kg
长度 0.30 m
直径 4.10 m
跨度 29.00 m
形状 Box + pan
制造商 SPXS
平台类型 Starlink V2MD
阶段状态 In Orbit
所有者/国家 SPXS/US

大型星座

Loading constellations...